Snowfall_Accumulation
-0.0 -0.0 -0.0 0.0 -0.0 -0.0 -0.0 -0.0 -0.0 -0.0 -0.0 -0.0 -0.0 -0.0 -0.0 -0.1 -0.1 -0.0 -0.0 -0.0 0.0 0.0 0.0 0.0 0.0 0.0 0.0 0.0 0.0 0.0 0.0 0.0 0.0 0.0 0.0 0.0 0.0 0.0 0.0 0.0 0.0 0.0 0.0 0.0 0.0 0.0 0.0 0.1 0.2 0.2 0.1 0.0 0.1 0.0 0.0 0.0 0.1 0.1 0.1 0.2 0.2 0.1 0.1 0.1 0.1 0.1 0.1 0.1 0.2
-0.0 0.0 0.0 -0.0 -0.0 -0.0 -0.0 -0.0 -0.0 -0.0 -0.0 -0.0 -0.0 -0.0 -0.0 -0.0 -0.0 -0.0 -0.0 0.0 0.0 0.0 0.0 0.0 0.0 0.0 0.0 0.0 0.0 0.0 0.0 0.0 0.0 0.0 0.0 0.0 0.0 0.0 0.0 0.0 0.0 0.0 0.0 0.0 0.0 0.0 0.1 0.2 0.1 0.1 0.1 0.1 0.1 0.1 0.1 0.1 0.1 0.3 0.3 0.3 0.2 0.1 0.1 0.1 0.1 0.1 0.1 0.1 0.2
-0.0 0.0 0.0 -0.0 -0.0 -0.0 -0.0 -0.0 -0.0 -0.0 -0.0 -0.0 -0.0 -0.0 -0.0 -0.0 -0.0 0.0 0.0 0.0 0.0 0.0 0.0 0.0 0.0 0.0 0.0 -0.0 0.0 0.0 0.0 0.0 0.0 0.0 0.0 0.0 0.0 0.0 0.0 0.0 0.0 0.0 0.0 0.0 0.1 0.1 0.2 0.2 0.1 0.1 0.1 0.1 0.1 0.1 0.1 0.1 0.2 0.3 0.3 0.2 0.1 0.1 0.1 0.1 0.1 0.1 0.1 0.1 0.2
-0.0 0.0 0.0 -0.0 -0.0 -0.0 -0.0 -0.0 -0.0 -0.0 -0.0 -0.0 -0.0 -0.0 -0.0 -0.0 0.0 0.0 0.0 0.0 0.0 0.0 0.0 0.0 -0.0 0.0 0.0 -0.0 0.0 0.0 0.0 0.0 0.0 0.0 0.0 0.0 0.0 0.0 0.0 0.0 0.0 0.0 0.0 0.1 0.1 0.1 0.1 0.0 0.0 0.0 0.1 0.1 0.1 0.1 0.1 0.2 0.2 0.2 0.2 0.1 0.1 0.1 0.1 0.1 0.1 0.1 0.1 0.2 0.2
-0.0 0.0 0.0 -0.0 -0.0 -0.0 -0.0 -0.0 -0.0 -0.0 -0.0 -0.0 -0.0 -0.0 -0.0 -0.0 0.0 0.0 0.0 0.0 0.0 0.0 0.0 0.0 -0.0 0.0 0.0 0.0 0.0 0.0 0.1 0.1 0.0 0.0 0.0 0.0 0.0 0.0 0.0 0.0 0.0 0.0 0.0 0.1 0.1 0.1 0.1 0.0 0.1 0.1 0.1 0.1 0.2 0.2 0.2 0.2 0.1 0.1 0.1 0.1 0.2 0.2 0.2 0.2 0.2 0.2 0.2 0.2 0.2
0.0 0.0 0.0 0.0 0.0 0.0 -0.0 -0.0 -0.0 -0.0 -0.0 -0.0 -0.0 -0.0 -0.0 0.0 0.0 0.0 0.0 0.0 0.0 0.0 0.0 0.0 0.0 -0.0 -0.0 0.0 0.1 0.1 0.2 0.1 0.0 0.0 0.0 0.0 0.0 0.0 0.0 0.0 0.0 0.0 0.0 0.0 0.0 0.0 0.0 0.0 0.1 0.1 0.2 0.1 0.2 0.2 0.2 0.1 0.1 0.1 0.1 0.2 0.2 0.2 0.2 0.2 0.3 0.3 0.3 0.4 0.4
0.0 0.0 0.0 0.0 0.0 0.0 0.0 -0.0 -0.0 -0.0 0.0 0.0 0.0 -0.0 -0.0 -0.0 0.0 -0.0 -0.0 -0.0 0.0 0.0 0.0 0.0 -0.0 -0.0 -0.0 0.1 0.2 0.2 0.3 0.0 0.0 0.0 0.0 0.0 0.0 0.0 0.0 0.0 0.1 0.0 0.0 0.0 0.0 0.0 0.0 0.1 0.1 0.1 0.2 0.3 0.2 0.2 0.2 0.1 0.1 0.2 0.2 0.2 0.2 0.4 0.4 0.4 0.4 0.4 0.4 0.4 0.3
0.0 0.0 0.0 0.0 0.0 0.0 0.0 -0.0 0.0 0.0 0.0 0.0 0.0 -0.0 -0.0 0.0 0.0 -0.0 -0.0 0.0 0.0 -0.0 -0.0 -0.0 -0.0 0.1 0.1 0.2 0.3 0.3 0.2 0.0 0.0 0.0 0.0 0.0 0.0 0.0 0.0 0.0 0.0 0.0 0.0 0.0 0.0 0.0 0.1 0.1 0.1 0.1 0.2 0.2 0.2 0.2 0.2 0.2 0.2 0.3 0.3 0.3 0.3 0.5 0.5 0.5 0.6 0.6 0.5 0.4 0.3
0.0 0.0 0.0 0.0 0.0 0.0 0.0 -0.0 0.0 0.0 0.0 0.0 -0.0 -0.0 -0.0 0.0 -0.0 -0.0 -0.0 0.0 0.0 0.0 0.0 0.0 0.0 0.2 0.2 0.3 0.2 0.2 0.0 0.0 0.0 0.0 0.0 0.0 0.0 0.0 0.0 0.0 0.0 0.0 0.0 0.1 0.1 0.1 0.1 0.1 0.1 0.1 0.2 0.3 0.3 0.2 0.2 0.2 0.3 0.3 0.3 0.4 0.3 0.3 0.3 0.4 0.4 0.4 0.4 0.3 0.4
0.0 0.0 0.0 0.0 0.0 0.0 0.0 0.0 0.0 0.0 0.0 0.0 -0.0 -0.0 -0.0 -0.0 -0.0 -0.0 -0.0 0.0 0.0 0.0 0.0 0.0 0.1 0.2 0.2 0.2 -0.0 -0.0 -0.0 -0.0 0.0 0.0 0.0 0.0 -0.0 -0.1 -0.1 -0.1 -0.1 -0.1 -0.1 0.0 0.0 0.0 0.1 0.1 0.1 0.1 0.2 0.2 0.3 0.3 0.3 0.3 0.4 0.5 0.5 0.7 0.6 0.1 0.1 0.1 0.2 0.2 0.2 0.4 0.4
0.0 0.0 0.0 0.0 0.0 0.0 0.0 0.0 0.0 0.0 0.0 0.0 -0.0 -0.0 -0.0 -0.0 0.0 0.0 0.0 0.0 0.0 0.1 0.1 0.0 0.3 0.1 0.1 -0.0 -0.1 -0.1 -0.1 -0.0 -0.0 -0.0 -0.0 -0.1 -0.1 -0.2 -0.2 -0.2 -0.3 -0.3 -0.3 -0.3 -0.1 -0.1 0.0 0.0 0.1 0.1 0.3 0.4 0.5 0.5 0.5 0.4 0.5 0.5 0.5 0.4 0.4 0.1 0.1 0.1 0.1 0.1 0.3 0.4 0.4
0.0 0.0 0.0 0.0 0.0 0.0 0.0 -0.0 0.0 0.0 0.0 -0.0 -0.0 -0.0 -0.0 0.0 0.0 0.0 0.0 0.0 0.1 0.1 0.1 0.1 0.2 -0.0 -0.0 -0.2 -0.1 -0.1 -0.1 -0.1 -0.0 -0.1 -0.1 -0.1 -0.1 -0.2 -0.2 -0.2 -0.5 -0.5 -0.5 -0.4 -0.2 -0.2 -0.1 -0.1 0.1 0.1 0.2 0.6 0.8 0.6 0.6 0.5 0.4 0.3 0.3 0.2 0.1 0.1 0.1 0.1 0.1 0.1 0.3 0.3 0.5
0.0 0.0 0.0 -0.0 -0.0 -0.0 -0.0 0.0 0.0 0.0 0.0 -0.0 -0.0 0.0 0.0 0.0 0.0 0.0 0.0 0.1 0.1 0.1 0.1 0.2 0.1 -0.1 -0.1 -0.2 -0.2 -0.2 -0.1 -0.1 -0.1 -0.1 -0.1 -0.1 -0.2 -0.2 -0.2 -0.2 -0.7 -0.7 -0.7 -0.4 -0.3 -0.3 -0.2 -0.1 -0.0 -0.0 0.1 0.7 0.9 0.8 0.8 0.6 0.2 0.1 0.1 0.1 0.1 0.1 0.1 0.1 0.2 0.2 0.2 0.3 0.5
0.0 0.0 0.0 0.0 -0.0 -0.0 0.0 -0.0 -0.0 -0.0 -0.0 -0.0 0.0 0.0 0.0 0.0 0.0 0.1 0.1 0.1 0.1 0.1 0.1 0.2 0.1 -0.1 -0.1 -0.2 -0.1 -0.1 -0.2 -0.2 -0.1 -0.1 -0.1 -0.1 -0.1 -0.2 -0.2 -0.2 -0.8 -0.8 -0.8 -0.5 -0.3 -0.3 -0.2 -0.1 -0.1 -0.1 0.1 0.5 0.9 0.8 0.8 0.5 0.3 0.0 0.0 -0.0 0.0 0.1 0.1 0.1 0.1 0.1 0.3 0.4 0.5
0.0 -0.0 -0.0 -0.0 -0.0 -0.0 -0.0 -0.0 0.0 0.0 -0.0 -0.0 0.0 0.0 0.0 -0.0 0.0 0.1 0.1 0.1 0.1 0.2 0.2 0.1 0.0 -0.1 -0.1 -0.1 -0.2 -0.2 -0.2 -0.2 -0.2 -0.0 -0.0 -0.0 -0.1 -0.2 -0.2 -0.3 -0.8 -0.9 -0.9 -0.6 -0.3 -0.3 -0.1 -0.2 -0.2 -0.2 0.0 0.4 0.8 0.7 0.7 0.3 0.2 -0.0 -0.0 -0.0 -0.0 0.0 0.0 0.1 0.1 0.1 0.3 0.6 0.6
0.0 -0.0 -0.0 -0.0 -0.0 -0.0 -0.0 -0.0 -0.0 -0.0 -0.0 -0.0 0.0 -0.0 -0.0 -0.1 0.0 0.2 0.2 0.2 0.2 0.2 0.2 0.0 -0.1 -0.1 -0.1 -0.1 -0.2 -0.2 -0.2 -0.2 -0.1 0.0 0.0 -0.1 -0.2 -0.2 -0.2 -0.4 -0.9 -1.0 -1.0 -0.5 -0.1 -0.1 -0.1 -0.2 -0.2 -0.2 -0.1 0.2 0.7 0.2 0.2 0.0 0.0 -0.1 -0.1 -0.0 0.0 -0.1 -0.1 -0.0 0.1 0.1 0.3 0.5 0.7
0.0 -0.0 -0.0 -0.0 -0.0 -0.0 -0.0 -0.1 -0.0 -0.0 -0.0 0.0 -0.0 -0.1 -0.1 -0.1 -0.0 0.2 0.2 0.2 0.2 0.1 0.1 -0.0 -0.1 -0.2 -0.2 -0.2 -0.2 -0.2 -0.2 -0.2 -0.1 -0.0 -0.0 -0.1 -0.2 -0.2 -0.2 -0.5 -1.1 -1.2 -1.2 -0.5 -0.3 -0.3 -0.2 -0.2 -0.2 -0.2 -0.1 0.4 0.5 0.1 0.1 -0.1 -0.1 -0.2 -0.2 -0.2 -0.2 -0.2 -0.2 -0.0 0.3 0.3 0.3 0.4 0.5
-0.0 -0.0 -0.0 -0.0 -0.1 -0.1 -0.1 -0.1 -0.1 -0.1 -0.0 -0.0 -0.1 -0.1 -0.1 -0.1 -0.0 0.1 0.1 0.2 0.1 0.0 0.0 -0.1 -0.1 -0.2 -0.2 -0.4 -0.3 -0.3 -0.2 -0.1 -0.0 -0.0 -0.0 -0.2 -0.3 -0.4 -0.4 -0.5 -1.0 -0.8 -0.8 -1.0 -0.9 -0.9 -0.4 -0.4 -0.3 -0.3 0.0 0.6 0.4 0.3 0.3 0.2 0.1 -0.2 -0.2 -0.2 -0.1 -0.1 -0.1 -0.0 -0.4 -0.4 -0.3 -0.2 -0.1
-0.1 -0.1 -0.1 -0.1 -0.1 -0.1 -0.1 -0.1 -0.1 -0.1 0.0 -0.0 -0.1 -0.1 -0.1 -0.0 0.0 0.1 0.1 0.1 0.1 -0.0 -0.0 -0.1 -0.1 -0.2 -0.2 -0.3 -0.2 -0.2 -0.1 -0.1 -0.1 -0.1 -0.1 -0.2 -0.2 -0.3 -0.3 -0.4 -0.7 -0.3 -0.3 -0.8 -1.0 -1.0 -0.2 -0.4 -0.5 -0.5 -0.2 0.3 0.3 0.2 0.2 0.3 -0.1 -0.1 -0.1 0.0 0.0 -0.1 -0.1 -0.6 -0.5 -0.5 -0.4 -0.2 -0.1
-0.1 -0.1 -0.1 -0.1 -0.1 -0.1 -0.1 -0.1 -0.1 -0.1 -0.0 -0.1 -0.1 -0.1 -0.1 0.0 0.0 0.1 0.1 0.0 0.0 -0.0 -0.0 -0.1 -0.1 -0.2 -0.2 -0.3 -0.2 -0.2 -0.1 -0.1 -0.1 -0.1 -0.1 -0.1 -0.1 -0.2 -0.2 -0.3 -0.5 0.1 0.1 -0.3 -0.7 -0.7 -0.3 -0.7 -0.5 -0.5 -0.1 0.2 0.4 0.4 0.4 0.2 0.3 0.3 0.3 0.2 -0.1 -0.5 -0.5 -0.7 -0.6 -0.6 -0.6 -0.2 -0.1
-0.1 -0.1 -0.1 -0.1 -0.0 -0.0 -0.1 -0.0 -0.1 -0.1 -0.0 -0.1 -0.1 -0.0 -0.0 0.0 0.0 0.0 0.0 0.0 0.0 -0.0 -0.0 -0.1 -0.1 -0.3 -0.3 -0.4 -0.2 -0.2 -0.1 -0.1 -0.1 -0.1 -0.1 -0.1 -0.0 -0.0 -0.0 -0.2 -0.3 0.4 0.4 0.3 -0.5 -0.5 -0.5 -0.9 -0.5 -0.5 -0.1 0.7 0.9 1.4 1.4 0.6 0.7 0.4 0.4 -0.2 -0.5 -0.7 -0.7 -0.6 -0.6 -0.6 -0.7 -0.7 -0.5
-0.1 -0.1 -0.1 -0.1 -0.0 -0.0 -0.0 -0.1 -0.0 -0.0 -0.0 -0.1 -0.1 -0.0 -0.0 0.0 0.0 0.0 0.0 0.0 0.0 -0.0 -0.0 -0.1 -0.1 -0.3 -0.3 -0.4 -0.2 -0.2 -0.1 -0.1 -0.1 -0.0 -0.0 0.0 0.1 0.1 0.1 -0.1 0.0 0.5 0.5 0.6 -1.4 -1.4 -1.1 -0.7 -0.5 -0.5 0.1 2.1 2.8 1.4 1.4 0.3 0.3 0.0 0.0 -0.3 -0.5 -0.6 -0.6 -0.6 -0.6 -0.6 -0.6 -0.6 -1.2
-0.0 -0.1 -0.1 -0.0 -0.0 -0.0 -0.0 -0.0 -0.0 -0.0 -0.0 -0.1 -0.1 0.0 0.0 0.0 0.0 0.0 0.0 0.0 0.0 -0.0 -0.0 -0.1 -0.1 -0.2 -0.2 -0.3 -0.1 -0.1 -0.1 -0.1 -0.0 0.0 0.0 0.1 0.1 0.2 0.2 0.1 0.2 0.3 0.3 0.1 -2.7 -2.7 -0.4 -0.3 -0.2 -0.2 2.9 3.4 0.9 0.2 0.2 0.4 0.7 0.6 0.6 -0.1 -0.2 -0.2 -0.2 -0.5 -0.6 -0.6 -0.6 -0.5 -0.5
-0.0 -0.0 -0.0 -0.0 -0.0 -0.0 -0.0 -0.0 -0.0 -0.0 -0.0 -0.1 -0.0 0.0 0.0 0.0 0.0 0.0 0.0 0.0 0.0 -0.0 -0.0 -0.1 -0.1 -0.2 -0.2 -0.2 -0.1 -0.1 -0.1 -0.0 -0.0 0.0 0.0 0.1 0.2 0.2 0.2 0.1 0.3 0.1 0.1 -0.4 -0.1 -0.1 1.7 1.4 1.2 1.2 3.1 1.0 0.6 1.0 1.0 1.3 1.5 0.5 0.5 0.0 0.1 -0.2 -0.2 -0.4 -0.6 -0.6 -0.6 -0.6 -0.6
-0.0 0.0 0.0 0.0 0.0 0.0 -0.0 -0.0 0.0 0.0 -0.0 -0.1 -0.0 0.0 0.0 0.0 0.0 0.0 0.0 0.0 0.0 -0.0 -0.0 -0.0 -0.1 -0.1 -0.1 -0.1 -0.1 -0.1 -0.0 -0.0 0.0 0.1 0.1 0.1 0.2 0.3 0.3 0.1 0.3 -0.0 -0.0 -0.9 2.8 2.8 4.4 4.1 5.4 5.4 5.7 0.8 1.3 1.6 1.6 2.0 1.4 0.1 0.1 0.1 0.4 -0.2 -0.2 -0.2 -0.6 -0.6 -0.7 -0.7 -0.7
0.0 0.0 0.0 0.0 -0.0 -0.0 -0.0 -0.0 0.0 0.0 -0.0 -0.0 0.0 0.0 0.0 0.0 0.0 0.0 0.0 0.0 0.0 -0.0 -0.0 -0.0 -0.1 -0.1 -0.1 -0.1 -0.0 -0.0 -0.0 -0.0 0.0 0.1 0.1 0.1 0.2 0.3 0.3 0.2 0.3 0.1 0.1 0.2 5.6 5.6 5.1 5.2 9.9 9.9 3.5 0.8 1.3 1.7 1.7 1.9 0.8 0.0 0.0 0.3 0.1 -0.0 -0.0 0.2 -0.7 -0.7 -0.8 -0.9 -0.9
0.0 0.0 0.0 0.0 0.0 0.0 -0.0 -0.0 0.0 0.0 -0.1 -0.0 0.0 0.0 0.0 0.0 0.0 0.0 0.0 0.0 0.0 -0.0 -0.0 -0.0 -0.0 -0.1 -0.1 -0.1 -0.1 -0.1 -0.0 -0.0 0.0 0.1 0.1 0.2 0.3 0.4 0.4 0.3 0.3 0.2 0.2 1.6 6.5 6.5 5.0 5.4 9.0 9.0 2.0 0.7 1.2 1.8 1.8 1.7 0.5 0.1 0.1 0.2 0.1 -0.2 -0.2 -0.1 -0.9 -0.9 -1.0 -1.1 -1.1
0.0 0.0 0.0 0.0 -0.0 -0.0 -0.0 -0.0 -0.0 -0.0 -0.1 0.0 0.0 0.0 0.0 -0.0 0.0 -0.0 -0.0 -0.0 0.0 -0.0 -0.0 -0.0 -0.0 -0.0 -0.0 -0.1 -0.1 -0.1 -0.0 -0.0 0.0 0.1 0.1 0.2 0.3 0.4 0.4 0.4 0.5 0.6 0.6 3.1 6.6 6.6 4.9 4.6 6.1 6.1 1.8 0.8 0.8 1.7 1.7 0.9 0.3 0.1 0.1 0.2 0.2 -0.2 -0.2 -0.3 0.3 0.3 -1.3 -1.4 -1.4
0.0 0.0 0.0 0.0 -0.0 -0.0 -0.0 -0.0 -0.0 -0.0 -0.1 0.0 0.0 0.0 0.0 -0.0 0.0 0.0 0.0 -0.0 -0.0 -0.0 -0.0 -0.0 -0.0 -0.0 -0.0 -0.1 -0.1 -0.1 -0.0 -0.0 0.0 0.1 0.1 0.2 0.3 0.3 0.3 0.4 0.7 0.9 0.9 3.8 6.4 6.4 4.4 2.5 2.7 2.7 1.4 0.8 0.8 1.1 1.1 0.5 0.2 0.2 0.2 0.3 0.4 -0.2 -0.2 -0.5 -0.2 -0.2 -1.3 -1.6 -1.7
0.0 0.0 0.0 0.0 -0.0 -0.0 -0.0 -0.0 -0.0 -0.0 -0.0 0.0 0.0 0.0 0.0 0.0 0.0 0.0 0.0 -0.0 -0.0 -0.0 -0.0 0.0 -0.0 -0.0 -0.0 -0.1 -0.1 -0.1 -0.0 -0.0 0.0 0.1 0.1 0.1 0.2 0.3 0.3 0.5 0.8 1.0 1.0 2.3 6.2 6.2 2.3 0.9 0.7 0.7 0.7 0.6 0.7 0.9 0.9 0.6 0.3 0.3 0.3 0.5 0.4 -0.0 -0.0 -0.4 -0.4 -0.4 -1.2 -1.6 -1.6
0.0 0.0 0.0 0.0 0.0 0.0 0.0 -0.0 -0.1 -0.1 -0.0 0.0 0.0 -0.0 -0.0 -0.0 -0.0 0.0 0.0 0.0 -0.0 0.0 0.0 0.0 0.0 -0.0 -0.0 -0.0 -0.0 -0.0 -0.0 -0.0 0.0 0.0 0.0 0.1 0.2 0.2 0.2 0.4 0.7 1.2 1.2 3.1 4.4 4.4 0.8 0.1 0.0 0.0 0.1 0.2 0.5 0.8 0.8 0.6 0.4 0.3 0.3 0.5 0.4 -0.0 -0.0 -0.2 -0.2 -0.2 -0.8 -1.3 -1.4
0.0 0.0 0.0 0.0 0.0 0.0 0.0 0.0 -0.1 -0.1 0.0 -0.0 0.0 -0.0 -0.0 -0.0 0.0 0.0 0.0 0.0 -0.0 -0.0 -0.0 -0.0 -0.0 -0.0 -0.0 -0.1 -0.1 -0.1 -0.1 -0.0 0.0 0.0 0.0 0.1 0.2 0.2 0.2 0.3 0.5 1.5 1.5 4.0 5.0 5.0 6.1 -0.0 -0.0 -0.0 0.0 0.1 0.2 0.5 0.5 0.7 0.5 0.3 0.3 0.4 0.2 -0.0 -0.0 0.0 0.3 0.3 -0.4 -0.9 -0.7
0.0 0.0 0.0 0.0 0.0 0.0 0.0 0.0 -0.0 -0.0 0.0 0.0 -0.0 -0.0 -0.0 -0.0 0.0 0.0 0.0 0.0 -0.0 -0.0 -0.0 -0.0 -0.0 -0.1 -0.1 -0.1 -0.1 -0.1 -0.1 -0.1 0.0 0.0 0.0 0.0 0.1 0.1 0.1 0.2 0.3 1.6 1.6 4.7 5.3 5.3 6.8 -0.1 -0.0 -0.0 -0.0 0.0 0.0 0.2 0.2 0.5 0.5 0.4 0.4 0.3 0.2 -0.2 -0.2 -0.1 1.0 1.0 0.3 -0.4 -0.3
0.0 0.0 0.0 0.0 0.0 0.0 0.0 0.0 0.0 0.0 0.0 0.0 -0.0 -0.0 -0.0 0.0 0.0 0.0 0.0 -0.0 -0.0 0.0 0.0 0.0 -0.0 -0.1 -0.1 -0.2 -0.2 -0.2 -0.2 -0.1 0.0 0.0 0.0 0.0 0.0 0.1 0.1 0.1 0.2 1.2 1.2 4.3 5.1 5.1 6.7 -4.7 -0.0 -0.0 -0.0 -0.0 0.0 0.0 0.0 0.3 0.5 0.4 0.4 0.3 0.0 -0.3 -0.3 -0.3 0.6 0.6 1.1 0.3 0.2
0.0 0.0 0.0 0.0 0.0 0.0 0.0 0.0 0.0 0.0 0.0 0.0 -0.0 -0.0 -0.0 -0.0 -0.0 0.0 0.0 -0.0 -0.0 0.0 0.0 0.0 0.0 -0.0 -0.0 -0.0 -0.1 -0.1 -0.2 -0.0 -0.0 0.0 0.0 0.0 0.0 0.0 0.0 0.0 -0.0 0.6 0.6 3.2 4.7 4.7 6.8 -5.5 -0.2 -0.2 -0.0 -0.0 -0.0 0.0 0.0 0.1 0.3 0.3 0.3 0.2 -0.1 -0.4 -0.4 -0.6 -0.6 -0.6 0.7 0.8 0.7
0.0 0.0 0.0 0.0 0.0 0.0 0.0 0.0 0.0 0.0 0.0 0.0 0.0 0.0 0.0 -0.0 -0.0 0.0 0.0 -0.0 -0.0 0.0 0.0 0.0 0.0 -0.0 -0.0 -0.0 -0.0 -0.0 -0.1 -0.0 -0.0 -0.0 -0.0 0.0 0.0 0.0 0.0 0.0 -0.1 -0.1 -0.1 2.1 3.5 3.5 5.5 -6.1 -0.1 -0.1 -0.0 -0.0 -0.0 0.0 0.0 0.0 0.0 0.1 0.1 0.1 -0.1 -0.4 -0.4 -0.6 -0.8 -0.8 -1.0 -0.5 0.9
0.0 0.0 0.0 0.0 0.0 0.0 0.0 0.0 0.0 0.0 0.0 0.0 0.0 0.0 0.0 0.0 -0.0 -0.0 -0.0 -0.0 -0.0 -0.0 -0.0 0.0 0.0 0.0 0.0 -0.0 -0.0 -0.0 -0.1 -0.0 -0.0 -0.0 -0.0 0.0 0.0 0.0 0.0 0.0 -0.0 -0.1 -0.1 1.6 2.6 2.6 4.1 -7.2 0.2 0.2 -0.0 -0.0 -0.0 0.0 0.0 0.0 0.0 0.0 0.0 0.1 -0.1 -0.4 -0.4 -0.6 -0.8 -0.8 -1.2 -2.1 -2.1
0.0 0.0 0.0 0.0 0.1 0.1 0.0 0.0 0.0 0.0 0.0 0.0 0.0 0.0 0.0 0.0 -0.0 -0.0 -0.0 -0.0 0.0 0.0 0.0 0.0 0.0 0.0 0.0 0.0 -0.0 -0.0 -0.0 -0.0 -0.0 -0.0 -0.0 0.0 0.0 0.0 0.0 0.0 0.0 -0.0 -0.0 0.6 1.9 1.9 2.4 -7.8 0.1 0.1 -0.1 -0.0 -0.0 -0.0 -0.0 -0.0 -0.0 -0.0 -0.0 -0.1 -0.1 -0.3 -0.3 -0.5 -0.7 -0.7 -1.1 -1.7 -2.9
0.0 0.0 0.0 0.0 0.1 0.1 0.0 0.0 0.0 0.0 0.0 0.0 0.0 0.0 0.0 0.0 0.0 -0.0 -0.0 -0.0 0.0 0.0 0.0 -0.0 -0.0 0.0 0.0 0.0 -0.0 -0.0 -0.0 -0.0 -0.0 -0.0 -0.0 0.0 0.0 0.0 0.0 0.0 0.0 -0.0 -0.0 0.0 1.1 1.1 1.4 -8.0 -0.6 -0.6 -0.2 -0.0 -0.0 -0.0 -0.0 -0.0 -0.0 -0.1 -0.1 -0.1 -0.2 -0.2 -0.2 -0.3 -0.5 -0.5 -0.8 -1.0 -2.3
0.0 0.0 0.0 0.0 0.0 0.0 0.0 0.0 0.0 0.0 0.0 0.0 0.1 0.0 0.0 0.0 -0.0 -0.0 -0.0 -0.0 -0.0 0.0 0.0 0.0 -0.0 0.0 0.0 0.0 -0.0 -0.0 0.0 0.0 0.0 0.0 0.0 0.0 -0.0 0.0 0.0 0.0 0.0 0.0 0.0 -0.0 0.6 0.6 0.7 -8.2 -1.3 -1.3 -0.4 -0.1 -0.0 -0.0 -0.0 -0.0 -0.0 -0.0 -0.0 -0.1 -0.2 -0.2 -0.2 -0.2 -0.3 -0.3 -0.2 -0.4 -1.1
0.0 0.0 0.0 0.0 0.0 0.0 0.0 0.0 0.0 0.0 0.0 0.0 0.1 0.0 0.0 -0.0 -0.0 -0.0 -0.0 -0.0 -0.0 0.0 0.0 0.0 0.0 -0.0 -0.0 0.0 -0.0 -0.0 0.0 0.0 0.0 0.0 0.0 0.0 0.0 0.0 0.0 0.0 0.0 0.0 0.0 -0.0 0.4 0.4 0.0 -8.0 -1.9 -1.9 -1.1 -0.3 -0.0 -0.0 -0.0 -0.0 -0.0 -0.1 -0.1 -0.1 -0.1 -0.1 -0.1 -0.1 -0.1 -0.1 -0.1 -0.1 -0.2